Regional Weather Roundup
Issued by NWS Grand Forks, ND

Home | Current Version | Previous Version | Text Only | Print | Product List | Glossary Off
Versions: 1 2 3 4 5 6 7 8 9 10 11 12 13 14 15 16 17 18 19 20 21 22 23 24 25 26 27 28 29 30 31 32 33 34 35 36 37 38 39 40 41 42 43 44 45 46 47 48 49 50

000
ASUS43 KFGF 250110
RWRFGF
PRAIRIE TO PINES  WEATHER ROUNDUP
NATIONAL WEATHER SERVICE EASTERN NORTH DAKOTA/GRAND FORKS ND
800 PM CDT FRI APR 24 2015

 **SATELLITE DATA USED TO AUGMENT SKY COVER AT AUTOMATED STATIONS**
 *****  WEATHER ACROSS EASTERN NORTH DAKOTA  *****

CITY           SKY/WX    TMP DP  RH WIND       PRES   REMARKS
GRAND FORKS    CLOUDY    51  38  60 SE10      29.76R
GRAND FRKS AFB CLOUDY    51  39  64 SE10      29.76R
GRAND FRKS NWS   N/A     48 N/A N/A SE7         N/A
DEVILS LAKE    CLEAR     52  37  58 E14G21    29.72R
FARGO          CLOUDY    48  40  73 SE16      29.74R
WAHPETON ARPT  CLOUDY    46  39  76 E18       29.72S
$$

 ***** WEATHER ACROSS CENTRAL AND WESTERN NORTH DAKOTA  *****

CITY           SKY/WX    TMP DP  RH WIND       PRES   REMARKS
BISMARCK       CLEAR     63  40  42 E12       29.62R
MINOT          PTCLDY    59  35  40 NE10      29.65R
JAMESTOWN      CLOUDY    53  42  66 E16       29.67R
MINOT AFB      CLEAR     60  37  43 E10       29.65R
GARRISON         N/A     62  37  39 E9        29.64R
WILLISTON      CLEAR     65  34  31 E10       29.61R
DICKINSON      PTCLDY    63  32  31 E10       29.60R
HETTINGER      CLEAR     62  32  32 E12       29.61R
$$

 *****  OTHER AIRPORT OBSERVATIONS IN OUR AREA  *****

CITY           SKY/WX    TMP DP  RH WIND       PRES   REMARKS
WALHALLA       CLOUDY    48  34  57 E14       29.80R
GRAFTON AIRPOR CLOUDY    48  36  61 E15       29.79R
VALLEY CITY AR CLOUDY    50  45  81 E14       29.71R
CANDO          FAIR      50  37  62 E17G23    29.73R
CAVALIER APRT  CLOUDY    48  36  61 E13G20    29.80R
GWINNER        PTCLDY    52  43  71 E18G25    29.68R
ROLLA          FAIR      52  36  54 E18       29.73R
 ***** THE ABOVE OBSERVATIONS ARE NON NWS ARE NOT QUALITY
       CONTROLLED AND MAY MIS-REPORT RAIN FOR SNOW...
$$

  *****  WEATHER ACROSS NORTHERN MINNESOTA  *****

CITY           SKY/WX    TMP DP  RH WIND       PRES   REMARKS
FLAG ISLAND    CLOUDY    39  30  70 SE8       29.89S
WARROAD        CLOUDY    37  34  87 E9        29.88R
ROSEAU         CLOUDY    43  34  70 E10       29.85S
HALLOCK        CLOUDY    48  30  49 E14       29.81R
THF RVR FALLS  CLOUDY    46  32  57 E16       29.80S
BAUDETTE       CLOUDY    41  31  67 SE9       29.87S
WASKISH        CLOUDY    43  32  65 E7        29.86R
CROOKSTON      CLOUDY    48  37  66 SE14      29.79R
$$
  *****  WEATHER ACROSS CENTRAL AND WEST MINNESOTA  *****

CITY           SKY/WX    TMP DP  RH WIND       PRES   REMARKS
FOSSTON        CLOUDY    45  32  61 E8        29.80R
BEMIDJI        CLOUDY    42  31  66 SE12      29.83R
PARK RAPIDS    CLOUDY    44  33  65 E13       29.80R
ELBOW LAKE     CLOUDY    44  42  93 E17G23    29.72S
WADENA         CLOUDY    43  36  75 E9        29.78S
DETROIT LAKES  CLOUDY    45  36  70 SE18G24   29.77S
MOORHEAD       CLOUDY    46  39  76 SE12G22   29.76R
FERGUS FALLS   CLOUDY    45  37  76 E14G20    29.75S
MORRIS MN      CLOUDY    46  43  87 E20       29.70S
STAPLES        CLOUDY    45  30  57 E7        29.79S
$$
  *****  WEATHER ELSEWHERE ACROSS MINNESOTA  *****

CITY           SKY/WX    TMP DP  RH WIND       PRES   REMARKS
DULUTH         CLOUDY    37  25  61 E15       29.91R
INTRNTL FALLS  CLOUDY    41  22  46 E10       29.90S
ELY            CLOUDY    37  12  35 SE10      29.94S
CLOQUET        CLOUDY    37  27  65 E9        29.89R
WHEATON        CLOUDY    45  41  87 E17       29.71R
BRAINERD       CLOUDY    42  32  67 E8        29.82S
HIBBING        CLOUDY    40  25  55 E12       29.90S
ALEXANDRIA     LGT RAIN  43  41  93 E15G21    29.76S FOG
SAINT CLOUD    CLOUDY    46  39  76 SE10      29.79R
MINNEAPOLIS    LGT RAIN  44  41  89 E16       29.81S FOG
$$

  *****  WEATHER ACROSS SOUTH DAKOTA  *****

CITY           SKY/WX    TMP DP  RH WIND       PRES   REMARKS
SIOUX FALLS    CLOUDY    61  50  67 SE22G32   29.55R
BROOKINGS      CLOUDY    54  46  76 E17G25    29.60R
WATERTOWN      CLOUDY    52  43  71 E13G25    29.60R
HURON          CLOUDY    66  49  54 E21G31    29.49R
SISSETON         N/A     50  44  80 SE18      29.66R
ABERDEEN       MOCLDY    55  45  68 E20       29.58S
MITCHELL       CLOUDY    64  54  69 NE15      29.48F
PIERRE         PTCLDY    68  45  43 NE16      29.49R
MOBRIDGE       CLEAR     66  45  46 E15       29.54R
RAPID CITY     MOCLDY    58  45  62 SE15      29.58R
$$

  *****  SOME WEATHER IN NEARBY STATES *****

CITY           SKY/WX    TMP DP  RH WIND       PRES   REMARKS
GLASGOW MT     MOSUNNY   64  32  30 N12       29.58R
GREAT FALLS MT LGT RAIN  45  39  79 S6        29.68R
CHEYENNE WY    CLOUDY    54  30  40 NW6       29.66S
SCOTTSBLUFF NE LGT RAIN  57  42  57 SW20G29   29.60R
OMAHA NE       CLOUDY    61  52  72 SE16      29.57F
DES MOINES IA  CLOUDY    53  47  79 E12       29.67F
DAVENPORT IA   CLOUDY    47  41  80 E15       29.81F
CHICAGO IL     LGT RAIN  45  32  60 NE10      29.91F
EAU CLAIRE WI  CLOUDY    47  32  56 SE15      29.87R
LA CROSSE WI   CLOUDY    46  41  82 VRB6      29.86F
$$

  *****  SOME NATIONAL WEATHER *****

CITY           SKY/WX    TMP DP  RH WIND       PRES   REMARKS
LA GUARDIA NY  CLEAR     42  21  43 N22G32    29.92R
RALEIGH NC     PTCLDY    58  33  39 CALM      29.97R
ATLANTA GA     CLOUDY    71  46  40 CALM      29.96S
NEW ORLEANS LA CLOUDY    73  67  81 S7        29.84R
OKLAHOMA CITY  MOCLDY    67  60  78 S20G28    29.60F
ALBUQUERQUE NM MOCLDY    56  38  50 SE7       29.87S
SALT LAKE CITY CLOUDY    56  43  61 E3        29.69F
LOS ANGELES CA PTSUNNY   60  52  74 W13       30.00R
BOISE ID       PTSUNNY   56  31  38 NW8       29.72F
SEATTLE WA     PTSUNNY   51  39  63 S8        29.83S
$$

*** WEATHER ACROSS MANITOBA...SASKATCHEWAN AND ONTARIO ***
                ***ONTARIO***

CITY           SKY/WX    TMP DP  RH WIND       PRES   REMARKS
GERALDTON      CLEAR     36  12  38 NE5       30.03R
THUNDER BAY    MOCLDY    36  16  44 E5        30.04R
SIOUX LOOKOUT  NOT AVBL
TORONTO        PTCLDY    36  23  60 N14       30.02R
BIG TROUT LK   CLEAR     27  14  59 S2        30.09R
PICKLE LAKE    PTCLDY    36  16  44 E7        30.02
DRYDEN         CLOUDY    43  18  36 SE5       29.94R
KENORA         CLOUDY    41  21  45 SE8       29.91S
$$
                *** MANITOBA***

CITY           SKY/WX    TMP DP  RH WIND       PRES   REMARKS
BRANDON        MOCLDY    55  36  47 E13G18    29.75R
DAUPHIN        CLOUDY    52  34  50 SE16      29.77R
ISLAND LAKE    MOCLDY    37  18  44 E6        29.99R
PILOT MOUND      N/A     50  36  57 E16G22      N/A
THE PAS        CLOUDY    30  27  86 N9        29.91R WCI  22
THOMPSON       LGT SNOW  25  23  93 NE9G17    30.02F WCI  15
WINNIPEG       MOCLDY    48  28  46 SE17G23   29.84R
LYNN LAKE      MOCLDY    28  14  54 E6        30.01S WCI  22
CHURCHILL      CLEAR     19  14  79 E6        30.13R WCI  11
GILLAM         MOCLDY    27  10  50 E7        30.11R WCI  19
$$
                ***SASKATCHEWAN***

CITY           SKY/WX    TMP DP  RH WIND       PRES   REMARKS
ESTEVAN        MOCLDY    57  36  44 E10       29.66R
KINDERSLEY     CLOUDY    52  37  58 E16G23    29.66R
LLOYDMINSTER   CLOUDY    34  30  86 NE18      29.78R WCI  23
PRINCE ALBERT  PTSUNNY   32  27  80 E21       29.85R WCI  20
REGINA         MOCLDY    54  30  40 NE20G26   29.66S
YORKTON        PTCLDY    54  32  43 E5        29.73S
N. BATTLEFORD  PTSUNNY   39  32  75 NE17G24   29.77R
LA RONGE       MOSUNNY   36  19  51 NE9       29.93R
SASKATOON      CLOUDY    45  30  57 NE22G28   29.74R
SWIFT CURRENT  MOSUNNY   54  36  50 E16G25    29.60R
$$
NOTE: THESE ARE AUTOMATED STATIONS WITH LIMITED QUALITY CONTROL
      "FAIR" INDICATES FEW OR NO CLOUDS BELOW 12,000 FEET WITH NO
      SIGNIFICANT WEATHER AND/OR OBSTRUCTIONS TO VISIBILITY.
      SKY/WX - SKY CONDITION AND SIGNIFICANT WEATHER.
      TMP - AIR TEMPERATURE.    DP   - DEWPOINT TEMPERATURE.
      RH  - RELATIVE HUMIDITY.  PRES - PRESSURE.
      HX  - HEAT INDEX.         WCI  - WIND CHILL INDEX.
$



USA.gov is the U.S. government's official web portal to all federal, state and local government web resources and services.